Retour au catalogue

PICOSAT 6

ActifScienceLEO
NORAD 26094·PAYLOAD·🇺🇸 United States

Lancé Jan 27, 2000 depuis Vandenberg Space Force Base

Loading…

Prochains Passages (prochaines 24 heures)

TLE

FraisSource: Space-Track

Époque: Sep 14, 2026, 07:31 UTC

1 26094U 00004M   26257.31371248  .00000374  00000-0  11828-3 0  9993
2 26094 100.2130 292.6799 0030942 289.7812  70.0039 14.47387508398128

Suivez PICOSAT 6 en temps réel avec AllMySat

Download on the App Store